Hourly Data Report for October 04, 2015

All times are specified in Local Standard Time (LST). Add 1 hour to adjust for Daylight Saving Time where and when it is observed.

CORAL HARBOUR A
NUNAVUT

64°11'36.000" N
83°21'34.000" W
62.20 m
2301002
71915
YZS

Download Data

Hourly Data (October 2015)
Hourly Data Report for October 4, 2015
Temp Definition
°C
Dew Point Temp Definition
°C
Rel Hum Definition
%
Wind Dir Definition
10's deg

Wind Spd Definition
km/h
Visibility Definition
km
Stn Press Definition
kPa
Hmdx Definition


Wind Chill Definition


Weather Definition


TIME
00:00 Legend Double Dagger -0.8 -3.5 82 2 30 24.1 101.55   -8 LegendNANA
01:00 Legend Double Dagger -1.1 -3.6 83 3 21 24.1 101.66   -7 Mainly Clear
02:00 Legend Double Dagger -1.4 -3.4 86 3 22 24.1 101.74   -7 LegendNANA
03:00 Legend Double Dagger -1.5 -3.7 85 1 17 24.1 101.85   -7 LegendNANA
04:00 Legend Double Dagger -0.9 -4.3 78 3 25 24.1 101.95   -7 Mainly Clear
05:00 Legend Double Dagger -1.1 -4.6 77 3 22 24.1 102.04   -7 Snow
06:00 Legend Double Dagger -1.2 -5.4 73 1 24 24.1 102.07   -7 Snow
07:00 Legend Double Dagger -1.4 -5.1 76 2 17 24.1 102.11   -7 Cloudy
08:00 Legend Double Dagger -1.6 -5.6 74 1 10 24.1 102.12   -5 LegendNANA
09:00 Legend Double Dagger -1.9 -5.8 75 35 19 24.1 102.13   -7 LegendNANA
10:00 Legend Double Dagger -2.1 -6.1 74 34 10 24.1 102.15   -6 Cloudy
11:00 Legend Double Dagger -2.2 -6.4 73 36 9 24.1 102.11   -6 LegendNANA
12:00 Legend Double Dagger -2.2 -6.6 72 4 7 24.1 102.08   -5 LegendNANA
13:00 Legend Double Dagger -2.1 -5.8 76 36 12 24.1 102.05   -6 Cloudy
14:00 Legend Double Dagger -2.2 -6.4 73 31 13 24.1 102.02   -7 LegendNANA
15:00 Legend Double Dagger -2.2 -6.8 71 31 15 24.1 102.00   -7 LegendNANA
16:00 Legend Double Dagger -2.1 -6.9 70 34 9 24.1 101.96   -6 Cloudy
17:00 Legend Double Dagger -2.1 -7.1 69 33 3 24.1 101.92   -3 LegendNANA
18:00 Legend Double Dagger -2.0 -6.8 70 33 12 24.1 101.89   -6 LegendNANA
19:00 Legend Double Dagger -2.1 -6.9 70 36 2 24.1 101.83   -3 Cloudy
20:00 Legend Double Dagger -2.1 -6.9 70 36 3 24.1 101.79   -3 LegendNANA
21:00 Legend Double Dagger -1.9 -6.3 72 33 10 24.1 101.74   -6 LegendNANA
22:00 Legend Double Dagger -1.9 -6.1 73 29 7 24.1 101.70   -5 Cloudy
23:00 Legend Double Dagger -2.0 -5.2 79 27 11 24.1 101.67   -6 LegendNANA

Notes on Data Quality.

Legend

  • E = Estimated
  • M = Missing
  • NA = Not Available
  • ‡ = Partner data that is not subject to review by the National Climate Archives
Date modified: